FW5449 Weather Reports


Display with metric or nautical units.
time (UTC)temp
F
wind
direction
speed
MPH
gust
MPH
rain 1hr
in
rain 24hr
in
rain mn
in
humidity
%
barometer
mb
20260906081655 58 241 0.0 3.0 0.00 0.02 0.00 87 1014.8
20260906081155 58 241 0.0 2.0 0.00 0.02 0.00 87 1014.9
20260906080919 58 241 0.0 3.0 0.00 0.02 0.00 87 1014.8
20260906080155 58 241 0.0 3.0 0.00 0.02 0.00 87 1014.9
20260906075641 58 241 0.0 1.0 0.00 0.02 0.00 87 1015.0
20260906075355 58 241 0.0 2.0 0.00 0.02 0.00 87 1014.8
20260906074820 58 241 0.0 2.0 0.00 0.02 0.00 87 1014.9
20260906074050 58 241 0.0 1.0 0.00 0.02 0.00 87 1014.8
20260906073543 58 241 1.0 3.0 0.00 0.02 0.00 87 1014.8
20260906073042 58 241 2.0 4.0 0.00 0.02 0.00 87 1014.8
20260906072545 58 252 1.0 3.0 0.00 0.02 0.00 87 1014.8
20260906072026 58 252 2.0 4.0 0.00 0.02 0.00 87 1014.8
20260906071528 58 244 2.0 4.0 0.00 0.02 0.00 86 1014.7
20260906071023 58 257 2.0 4.0 0.00 0.02 0.00 86 1014.7
20260906070522 59 266 1.0 4.0 0.00 0.02 0.00 86 1014.6
20260906070022 59 270 1.0 3.0 0.00 0.02 0.00 86 1014.6
20260906065520 59 270 1.0 3.0 0.00 0.02 0.02 86 1014.6
20260906065016 59 270 1.0 3.0 0.00 0.02 0.02 86 1014.7
20260906064511 59 270 1.0 3.0 0.00 0.02 0.02 85 1014.7
20260906064008 59 270 1.0 3.0 0.00 0.02 0.02 85 1014.7
20260906063502 59 197 0.0 3.0 0.00 0.02 0.02 85 1014.8
20260906063002 59 197 0.0 1.0 0.00 0.02 0.02 85 1014.8
20260906062455 59 197 0.0 2.0 0.00 0.02 0.02 85 1014.8
20260906062200 59 197 0.0 3.0 0.00 0.02 0.02 85 1014.8
20260906061440 60 197 1.0 3.0 0.00 0.02 0.02 85 1014.9
20260906060940 60 197 1.0 3.0 0.00 0.02 0.02 85 1014.9
20260906060440 60 197 1.0 3.0 0.00 0.02 0.02 84 1014.9
20260906055938 60 206 1.0 3.0 0.00 0.02 0.02 84 1014.9
20260906055439 60 211 0.0 2.0 0.00 0.02 0.02 84 1014.8
20260906054940 60 339 0.0 0.0 0.00 0.02 0.02 84 1014.8
20260906054436 60 339 0.0 0.0 0.00 0.02 0.02 83 1014.9
20260906053934 60 339 0.0 0.0 0.00 0.02 0.02 82 1014.9
20260906053433 61 339 0.0 0.0 0.00 0.02 0.02 81 1014.9
20260906052937 61 339 0.0 0.0 0.00 0.02 0.02 81 1014.9
20260906052428 61 339 0.0 0.0 0.00 0.02 0.02 82 1015.0
20260906051926 61 339 0.0 0.0 0.00 0.02 0.02 81 1015.0
20260906051405 61 339 0.0 0.0 0.00 0.02 0.02 81 1015.0
20260906050851 61 339 0.0 0.0 0.00 0.02 0.02 81 1015.0
20260906050342 61 339 0.0 0.0 0.00 0.02 0.02 81 1015.1
20260906045845 61 339 0.0 0.0 0.00 0.02 0.02 80 1015.1
20260906045340 62 339 0.0 0.0 0.00 0.02 0.02 80 1015.0
20260906044832 62 339 0.0 0.0 0.00 0.02 0.02 80 1015.1
20260906044319 62 339 0.0 1.0 0.00 0.02 0.02 79 1015.1
20260906043809 62 339 0.0 2.0 0.00 0.02 0.02 79 1015.2
20260906043506 62 339 1.0 3.0 0.00 0.02 0.02 79 1015.2
20260906042741 62 339 2.0 3.0 0.00 0.02 0.02 79 1015.2
20260906042240 62 332 1.0 3.0 0.00 0.02 0.02 78 1015.2
20260906041741 63 316 1.0 3.0 0.00 0.02 0.02 78 1015.2
20260906041234 63 18 1.0 2.0 0.00 0.02 0.02 77 1015.1
20260906040731 63 18 0.0 2.0 0.00 0.02 0.02 77 1015.1
20260906040222 63 18 0.0 1.0 0.00 0.02 0.02 77 1015.2
20260906035714 63 18 0.0 1.0 0.00 0.02 0.02 76 1015.1
20260906035219 64 18 0.0 2.0 0.00 0.02 0.02 76 1015.1
20260906034935 64 18 1.0 3.0 0.00 0.02 0.02 76 1015.0
20260906034153 64 18 1.0 3.0 0.00 0.02 0.02 76 1015.0
20260906033653 64 18 1.0 2.0 0.00 0.02 0.02 75 1014.9
20260906033412 64 18 1.0 3.0 0.00 0.02 0.02 75 1014.9
20260906032652 64 18 1.0 5.0 0.00 0.02 0.02 75 1014.8
20260906032152 65 351 1.0 5.0 0.00 0.02 0.02 74 1014.8
20260906031640 65 343 2.0 5.0 0.00 0.02 0.02 74 1014.5
20260906031129 65 339 3.0 6.0 0.00 0.02 0.02 73 1014.6
20260906030619 65 353 3.0 8.0 0.00 0.02 0.02 72 1014.4
20260906030328 65 317 3.0 8.0 0.00 0.02 0.02 72 1014.4
20260906025601 66 337 4.0 7.0 0.00 0.02 0.02 71 1014.4
20260906025058 66 341 3.0 7.0 0.00 0.02 0.02 71 1014.4
20260906024558 66 332 3.0 7.0 0.00 0.02 0.02 71 1014.3
20260906024058 66 247 4.0 9.0 0.00 0.02 0.02 70 1014.3
20260906023557 67 349 5.0 10.0 0.00 0.02 0.02 70 1014.3
20260906023054 67 355 5.0 10.0 0.00 0.02 0.02 69 1014.3
20260906022554 67 351 4.0 10.0 0.00 0.02 0.02 69 1014.3
20260906022054 67 340 4.0 10.0 0.00 0.02 0.02 68 1014.3
20260906021551 67 16 4.0 9.0 0.00 0.02 0.02 67 1014.4
20260906021315 68 4 5.0 9.0 0.00 0.02 0.02 67 1014.4
20260906020551 68 8 4.0 9.0 0.00 0.03 0.02 66 1014.3
20260906020050 68 355 4.0 10.0 0.00 0.03 0.02 65 1014.4
20260906020041 69 353 4.0 11.0 0.00 0.03 0.02 63 1014.3
20260906015046 69 357 5.0 11.0 0.00 0.04 0.02 63 1014.5
20260906014547 69 347 5.0 11.0 0.00 0.04 0.02 62 1014.4
20260906014046 70 346 5.0 10.0 0.00 0.04 0.02 62 1014.4
20260906013550 70 324 5.0 10.0 0.00 0.04 0.02 61 1014.5
20260906013048 71 37 4.0 10.0 0.00 0.05 0.02 59 1014.4
20260906012546 71 344 5.0 9.0 0.00 0.05 0.02 59 1014.3
20260906012045 71 17 5.0 9.0 0.00 0.05 0.02 58 1014.3
20260906011543 72 8 5.0 9.0 0.00 0.05 0.02 57 1014.2
20260906011043 72 14 4.0 9.0 0.00 0.05 0.02 57 1014.1
20260906010541 72 22 3.0 7.0 0.00 0.05 0.02 55 1014.1
20260906010041 73 357 2.0 7.0 0.00 0.05 0.02 52 1014.1
20260906005541 73 340 2.0 4.0 0.00 0.05 0.02 50 1014.2
20260906005042 74 25 3.0 6.0 0.00 0.05 0.02 50 1014.2
20260906005017 74 343 4.0 9.0 0.00 0.05 0.02 50 1014.1
20260906004032 74 312 4.0 9.0 0.00 0.05 0.02 50 1014.1
20260906003533 74 357 3.0 9.0 0.00 0.05 0.02 49 1014.1
20260906003033 74 3 3.0 8.0 0.00 0.06 0.02 48 1014.2
20260906002534 75 6 5.0 9.0 0.00 0.06 0.02 49 1014.2
20260906002028 75 318 5.0 10.0 0.00 0.07 0.02 49 1014.1
20260906001527 75 298 5.0 10.0 0.00 0.07 0.02 48 1014.1
20260906001026 75 248 4.0 9.0 0.00 0.07 0.02 45 1014.1
20260906000525 75 273 4.0 8.0 0.00 0.07 0.02 46 1014.1
20260906000024 75 345 3.0 8.0 0.00 0.08 0.02 45 1014.1
20260905235520 75 232 3.0 8.0 0.00 0.08 0.02 47 1014.0
20260905235013 75 237 4.0 9.0 0.00 0.08 0.02 45 1013.9
20260905234730 75 291 4.0 9.0 0.00 0.08 0.02 47 1014.0
20260905234013 74 281 4.0 10.0 0.00 0.08 0.02 46 1014.0
20260905233511 74 328 4.0 10.0 0.00 0.09 0.02 46 1014.1
20260905233010 74 343 3.0 7.0 0.00 0.09 0.02 45 1014.1
20260905232508 74 312 4.0 8.0 0.00 0.10 0.02 48 1014.2
20260905232446 74 238 3.0 8.0 0.00 0.11 0.02 48 1014.4
20260905231500 74 249 4.0 8.0 0.00 0.13 0.02 48 1014.6
20260905230957 74 230 4.0 8.0 0.00 0.14 0.02 49 1014.6
20260905230457 75 286 3.0 8.0 0.00 0.15 0.02 48 1014.6
20260905225958 75 281 2.0 6.0 0.00 0.16 0.02 48 1014.6
20260905225455 76 328 3.0 9.0 0.00 0.16 0.02 47 1014.7
20260905224954 76 316 5.0 9.0 0.00 0.16 0.02 47 1014.7
20260905224457 76 12 5.0 9.0 0.00 0.16 0.02 46 1014.7
20260905223956 76 307 5.0 9.0 0.00 0.17 0.02 47 1014.7
20260905223453 76 305 4.0 9.0 0.00 0.17 0.02 47 1014.7
20260905223215 76 245 4.0 11.0 0.00 0.17 0.02 50 1014.8
20260905222456 76 240 5.0 12.0 0.00 0.17 0.02 48 1014.8
20260905221950 77 82 4.0 12.0 0.00 0.18 0.02 52 1014.8
20260905221450 76 241 4.0 10.0 0.00 0.19 0.02 51 1014.8
20260905220949 76 263 4.0 10.0 0.00 0.20 0.02 51 1014.7
20260905220447 76 286 3.0 8.0 0.00 0.21 0.02 50 1014.8
20260905215952 76 355 3.0 9.0 0.00 0.22 0.02 54 1014.7
20260905215447 76 234 4.0 9.0 0.00 0.22 0.02 54 1014.7
20260905215206 75 320 5.0 10.0 0.00 0.23 0.02 53 1014.8
20260905214445 75 228 5.0 10.0 0.00 0.23 0.02 51 1014.8
20260905213945 75 230 3.0 8.0 0.00 0.24 0.02 53 1014.8
20260905213443 75 247 1.0 7.0 0.00 0.26 0.02 55 1014.9
20260905213210 74 38 2.0 7.0 0.00 0.28 0.02 52 1015.0
20260905212447 74 14 4.0 8.0 0.00 0.29 0.02 57 1015.0
20260905211946 74 348 3.0 8.0 0.00 0.30 0.02 54 1015.1
20260905211443 74 247 3.0 8.0 0.00 0.31 0.02 55 1015.2
20260905210943 74 174 4.0 8.0 0.00 0.31 0.02 53 1015.2
20260905210704 73 242 3.0 8.0 0.00 0.32 0.02 58 1015.4
20260905205945 73 323 2.0 5.0 0.00 0.32 0.02 59 1015.4
20260905205445 72 235 3.0 9.0 0.00 0.33 0.02 60 1015.6
20260905204934 72 262 3.0 9.0 0.00 0.33 0.02 60 1015.6
20260905204429 72 251 3.0 5.0 0.00 0.34 0.02 59 1015.7
20260905203929 72 252 2.0 5.0 0.00 0.35 0.02 59 1015.7
20260905203432 72 274 1.0 4.0 0.00 0.36 0.02 60 1015.5
20260905202925 72 37 1.0 3.0 0.00 0.37 0.02 56 1015.6
20260905202645 73 128 2.0 5.0 0.00 0.38 0.02 56 1015.6
20260905201925 73 108 2.0 8.0 0.00 0.38 0.02 56 1015.7
20260905201423 73 155 1.0 8.0 0.00 0.39 0.02 58 1015.6
20260905200917 73 178 2.0 5.0 0.00 0.39 0.02 57 1015.7
20260905200413 72 301 3.0 7.0 0.00 0.39 0.02 60 1015.7
20260905195913 72 352 2.0 7.0 0.00 0.39 0.02 64 1015.7
20260905195409 72 325 2.0 7.0 0.00 0.40 0.02 62 1015.7
20260905194907 72 238 2.0 8.0 0.00 0.40 0.02 60 1015.8
20260905194403 72 250 2.0 8.0 0.00 0.40 0.02 61 1015.9
20260905193906 71 328 2.0 5.0 0.00 0.40 0.02 64 1016.0
20260905193353 71 124 2.0 7.0 0.00 0.40 0.02 63 1016.2
20260905192839 70 166 2.0 6.0 0.00 0.40 0.02 62 1016.1
20260905191839 69 131 2.0 5.0 0.00 0.40 0.02 64 1016.3
20260905191335 69 241 1.0 4.0 0.00 0.40 0.02 66 1016.2
20260905190823 69 198 2.0 5.0 0.00 0.40 0.02 68 1016.2
20260905190322 68 310 3.0 5.0 0.00 0.40 0.02 69 1016.3
20260905185819 68 308 2.0 5.0 0.00 0.40 0.02 72 1016.3
20260905185543 68 281 1.0 5.0 0.00 0.40 0.02 71 1016.3
20260905184817 68 295 1.0 4.0 0.00 0.40 0.02 73 1016.3
20260905184538 67 27 1.0 4.0 0.00 0.40 0.02 71 1016.4
20260905183811 67 105 1.0 4.0 0.00 0.40 0.02 72 1016.4
20260905183307 67 266 1.0 3.0 0.00 0.40 0.02 75 1016.4
20260905182809 66 123 1.0 6.0 0.00 0.40 0.02 75 1016.4
20260905182309 66 99 1.0 6.0 0.00 0.40 0.02 75 1016.4
20260905181804 65 33 2.0 8.0 0.00 0.40 0.02 79 1016.5
20260905181525 65 33 3.0 8.0 0.00 0.40 0.02 75 1016.5
20260905180800 66 240 1.0 5.0 0.00 0.40 0.02 76 1016.5
20260905180258 65 69 1.0 4.0 0.00 0.40 0.02 78 1016.4
20260905180025 65 335 1.0 4.0 0.00 0.40 0.02 79 1016.4
20260905175252 64 317 1.0 3.0 0.00 0.40 0.02 78 1016.5
20260905174747 64 48 2.0 8.0 0.00 0.40 0.02 79 1016.6
20260905174244 64 341 2.0 8.0 0.00 0.40 0.02 81 1016.7
20260905173737 64 299 1.0 4.0 0.00 0.40 0.02 79 1016.7
20260905173236 64 270 1.0 4.0 0.00 0.40 0.02 79 1016.7
20260905172954 64 255 1.0 3.0 0.00 0.40 0.02 77 1016.7
20260905172234 64 205 1.0 3.0 0.00 0.41 0.02 77 1016.7
20260905171728 64 205 1.0 3.0 0.00 0.41 0.02 78 1016.6
20260905171711 64 251 1.0 3.0 0.00 0.41 0.02 78 1016.7
20260905170727 63 167 2.0 5.0 0.00 0.41 0.02 78 1016.5
20260905170226 63 128 2.0 6.0 0.00 0.41 0.02 80 1016.6
20260905165721 62 129 2.0 6.0 0.00 0.41 0.02 81 1016.6
20260905165220 62 149 3.0 7.0 0.00 0.41 0.02 83 1016.5
20260905164722 61 158 4.0 7.0 0.00 0.42 0.02 83 1016.4
20260905164212 61 148 3.0 7.0 0.00 0.42 0.02 84 1016.4
20260905163708 60 141 3.0 9.0 0.00 0.43 0.02 84 1016.3
20260905163210 60 116 4.0 9.0 0.00 0.44 0.02 85 1016.4
20260905162708 59 104 4.0 9.0 0.00 0.45 0.02 87 1016.3
20260905162209 59 156 4.0 8.0 0.00 0.46 0.02 87 1016.4
20260905161708 58 176 5.0 8.0 0.00 0.47 0.02 87 1016.4
20260905161206 58 102 5.0 8.0 0.00 0.49 0.02 88 1016.3
20260905160708 58 97 5.0 9.0 0.00 0.50 0.02 89 1016.4
20260905160205 57 81 5.0 11.0 0.00 0.50 0.02 89 1016.4
20260905155705 57 85 4.0 11.0 0.00 0.50 0.02 91 1016.5
20260905155204 57 106 3.0 7.0 0.00 0.50 0.02 90 1016.5
20260905154931 56 121 3.0 8.0 0.00 0.51 0.02 90 1016.6
20260905154206 56 120 4.0 8.0 0.00 0.51 0.02 91 1016.5
20260905153702 56 85 4.0 9.0 0.00 0.51 0.02 91 1016.6
20260905153201 56 109 3.0 9.0 0.00 0.51 0.02 91 1016.7
20260905152707 55 130 4.0 8.0 0.00 0.51 0.02 92 1016.7
20260905152702 56 101 3.0 8.0 0.00 0.51 0.02 92 1016.7
20260905151700 55 146 3.0 7.0 0.00 0.51 0.02 93 1016.7
20260905151201 55 124 3.0 7.0 0.00 0.51 0.02 93 1016.7
20260905150658 55 124 2.0 6.0 0.00 0.51 0.02 94 1016.8
20260905150158 55 104 1.0 5.0 0.00 0.51 0.02 95 1016.7
20260905145658 55 100 2.0 4.0 0.00 0.51 0.02 95 1016.7
20260905145155 55 126 1.0 4.0 0.00 0.51 0.02 95 1016.8
20260905144657 55 100 1.0 3.0 0.00 0.51 0.02 95 1016.7
20260905144154 54 133 1.0 3.0 0.00 0.51 0.02 95 1016.8
20260905143652 54 119 0.0 4.0 0.00 0.51 0.02 96 1016.7
20260905143147 54 95 0.0 4.0 0.00 0.51 0.02 96 1016.7
20260905142652 54 113 0.0 2.0 0.00 0.51 0.02 96 1016.7
20260905142144 54 113 0.0 3.0 0.00 0.51 0.02 96 1016.7
20260905141646 53 112 0.0 3.0 0.00 0.51 0.02 96 1016.6
20260905141145 53 113 1.0 3.0 0.00 0.51 0.02 96 1016.6
20260905140645 53 128 1.0 3.0 0.00 0.51 0.02 96 1016.5
20260905140145 54 159 0.0 2.0 0.00 0.51 0.02 96 1016.5
20260905135643 54 159 0.0 0.0 0.00 0.51 0.02 95 1016.4
20260905135144 54 159 0.0 0.0 0.00 0.51 0.02 95 1016.4
20260905134629 54 159 0.0 0.0 0.00 0.51 0.02 95 1016.4
20260905134120 54 159 0.0 1.0 0.00 0.51 0.02 95 1016.3
20260905133613 54 159 0.0 1.0 0.00 0.51 0.02 95 1016.3
20260905133101 54 159 0.0 0.0 0.00 0.51 0.02 95 1016.3
20260905132600 54 159 0.0 0.0 0.00 0.51 0.02 95 1016.4
20260905132056 54 159 0.0 0.0 0.00 0.51 0.02 95 1016.4
20260905131555 54 159 0.0 0.0 0.01 0.51 0.02 95 1016.4
20260905131050 54 159 0.0 0.0 0.01 0.51 0.02 95 1016.3
20260905130551 54 160 0.0 0.0 0.01 0.51 0.02 95 1016.3
20260905130050 54 160 0.0 0.0 0.01 0.51 0.02 95 1016.3
20260905125812 54 160 0.0 0.0 0.01 0.51 0.02 95 1016.3
20260905125258 54 160 0.0 0.0 0.01 0.51 0.02 95 1016.2
20260905124538 54 160 0.0 0.0 0.02 0.51 0.02 95 1016.2
20260905124020 54 160 0.0 0.0 0.02 0.51 0.02 95 1016.1
20260905123510 54 160 0.0 1.0 0.02 0.51 0.02 95 1016.2
20260905123205 54 160 0.0 1.0 0.02 0.51 0.02 95 1016.1
20260905122433 54 160 0.0 0.0 0.02 0.51 0.02 95 1016.1
20260905121931 54 160 0.0 1.0 0.02 0.52 0.02 95 1016.1
20260905121428 54 160 0.0 2.0 0.01 0.51 0.01 95 1016.0
20260905120917 54 160 0.0 2.0 0.01 0.51 0.01 95 1016.1
20260905120414 54 205 1.0 2.0 0.01 0.51 0.01 95 1016.2
20260905115909 54 247 1.0 2.0 0.01 0.51 0.01 95 1016.1
20260905115347 55 273 1.0 3.0 0.01 0.51 0.01 95 1016.1
20260905114848 55 273 0.0 3.0 0.01 0.51 0.01 95 1016.2
20260905114350 55 281 0.0 3.0 0.00 0.50 0.00 95 1016.2
20260905113849 55 161 0.0 0.0 0.00 0.50 0.00 95 1016.2
20260905113552 55 161 0.0 0.0 0.00 0.50 0.00 94 1016.1
20260905113040 55 161 0.0 0.0 0.00 0.50 0.00 94 1016.1
20260905112307 55 161 0.0 0.0 0.00 0.50 0.00 94 1016.2
20260905111810 55 161 0.0 0.0 0.00 0.50 0.00 94 1016.1
20260905111304 55 161 0.0 1.0 0.00 0.50 0.00 94 1016.1
20260905110743 55 161 0.0 3.0 0.00 0.50 0.00 94 1016.0
20260905110227 55 161 1.0 3.0 0.00 0.50 0.00 94 1016.0
20260905105713 55 149 1.0 3.0 0.00 0.50 0.00 94 1015.9
20260905105356 55 149 2.0 4.0 0.00 0.50 0.00 94 1015.9
20260905104626 55 155 2.0 4.0 0.00 0.50 0.00 94 1016.0
20260905104112 55 147 1.0 4.0 0.00 0.50 0.00 94 1016.0
20260905103608 55 146 1.0 3.0 0.00 0.50 0.00 94 1015.9
20260905103107 55 126 1.0 3.0 0.00 0.50 0.00 94 1016.0
20260905102604 55 136 1.0 4.0 0.00 0.50 0.00 94 1016.0
20260905102101 55 164 1.0 4.0 0.00 0.50 0.00 94 1016.1
20260905101549 55 153 1.0 4.0 0.00 0.50 0.00 94 1016.0
20260905101040 55 124 1.0 2.0 0.00 0.50 0.00 94 1016.0
20260905100541 55 147 1.0 3.0 0.00 0.50 0.00 94 1016.1
20260905100038 54 145 2.0 4.0 0.00 0.50 0.00 94 1016.0
20260905095806 54 155 1.0 4.0 0.00 0.50 0.00 94 1016.1
20260905095039 54 136 1.0 3.0 0.00 0.50 0.00 94 1016.0
20260905094535 54 136 1.0 3.0 0.00 0.50 0.00 93 1016.0
20260905094248 54 135 2.0 3.0 0.00 0.50 0.00 93 1016.0
20260905093529 54 141 2.0 4.0 0.00 0.50 0.00 93 1016.0
20260905093032 55 149 2.0 5.0 0.00 0.50 0.00 93 1016.0
20260905092525 55 135 2.0 5.0 0.00 0.50 0.00 93 1016.1
20260905092025 55 134 2.0 4.0 0.00 0.50 0.00 93 1016.0
20260905091523 55 128 2.0 4.0 0.00 0.50 0.00 93 1016.1
20260905091019 55 129 2.0 4.0 0.00 0.50 0.00 93 1016.0
20260905090520 55 135 2.0 4.0 0.00 0.50 0.00 93 1015.9
20260905090019 55 133 3.0 4.0 0.00 0.50 0.00 93 1015.9
20260905085512 55 145 3.0 5.0 0.00 0.50 0.00 93 1015.9
20260905085009 55 135 3.0 5.0 0.00 0.50 0.00 93 1015.9
20260905084509 55 149 3.0 5.0 0.00 0.50 0.00 93 1016.0
20260905084007 55 155 3.0 5.0 0.00 0.50 0.00 93 1015.9
20260905083505 55 131 3.0 5.0 0.00 0.50 0.00 93 1015.8
20260905083003 54 150 2.0 4.0 0.00 0.50 0.00 93 1015.8
20260905082500 54 143 2.0 4.0 0.00 0.50 0.00 93 1015.7